Stations météo

réclame
Mon MeteoGroup
Milford-Haven, Grande-Bretagne (3604): Température de l'air & dewpoint: 22.10.2020 02:00:00 - 28.10.2020 02:00:00 (GMT)Milford-Haven, Grande-Bretagne (3604): Température de l'air -20cm & Température de l'air -100cm: 22.10.2020 02:00:00 - 28.10.2020 02:00:00 (GMT)Milford-Haven, Grande-Bretagne (3604): Vitesse du vent & gusts: 22.10.2020 02:00:00 - 28.10.2020 02:00:00 (GMT)Milford-Haven, Grande-Bretagne (3604): Direction du vent: 22.10.2020 02:00:00 - 28.10.2020 02:00:00 (GMT)Milford-Haven, Grande-Bretagne (3604): reduced air pressure: 22.10.2020 02:00:00 - 28.10.2020 02:00:00 (GMT)Milford-Haven, Grande-Bretagne (3604): visibility: 22.10.2020 02:00:00 - 28.10.2020 02:00:00 (GMT)Milford-Haven, Grande-Bretagne (3604): Quantités de précipitations: 22.10.2020 02:00:00 - 28.10.2020 02:00:00 (GMT)
Date & Time tt [°C] td [°C] tt -20cm [°C] tt -100cm [°C] ff [km/h] ff [knt] fx [km/h] fx [knt] dd ppp [hPa] vv [km] rr [mm]
28.10.2020 02:00:00 - - - - - - - - - - - -
28.10.2020 01:00:00 10,0 6,0 - - 29 16 63 34 WSW 996,7 35 0,2
28.10.2020 00:00:00 9,6 7,4 - - 21 11 57 31 SW 996,5 30 1,0
27.10.2020 23:00:00 10,0 6,6 - - 39 21 74 40 W 996,5 40 0,0
27.10.2020 22:00:00 11,5 6,1 - - 35 19 54 29 WSW 996,4 30 0,0
27.10.2020 21:00:00 11,4 5,9 - - 34 18 59 32 WSW 996,1 21 0,2
27.10.2020 20:00:00 11,6 6,4 - - 29 16 54 29 WSW 995,9 23 0,0
27.10.2020 19:00:00 11,0 6,6 - - 28 15 61 33 W 995,8 27 0,0
27.10.2020 18:00:00 11,6 6,0 - - 39 21 61 33 W 995,4 25 0,0
27.10.2020 17:00:00 11,3 5,3 - - 42 23 63 34 W 994,8 26 0,0
27.10.2020 16:00:00 11,3 6,8 - - 41 22 61 33 W 994,4 23 0,0
27.10.2020 15:00:00 10,9 8,1 - - 35 19 68 37 W 994,0 24 3,0
27.10.2020 14:00:00 12,7 6,6 - - 37 20 59 32 W 993,6 24 0,0
27.10.2020 13:00:00 12,8 7,8 - - 41 22 61 33 W 992,8 23 0,0
27.10.2020 12:00:00 11,9 10,2 - - 22 12 55 30 WNW 992,3 30 0,0
27.10.2020 11:00:00 12,7 11,0 - - 35 19 52 28 W 991,5 21 0,0
27.10.2020 10:00:00 12,7 12,0 - - 28 15 - - WSW 991,0 19 0,0
27.10.2020 09:00:00 13,1 13,0 11,0 12,2 28 15 59 32 SW 990,8 2,8 1,0
27.10.2020 08:00:00 12,0 11,9 - - 41 22 61 33 S 991,2 3,6 0,4
27.10.2020 07:00:00 11,1 11,0 - - 35 19 59 32 S 992,5 1,8 0,6
27.10.2020 06:00:00 10,8 10,5 - - 39 21 57 31 S 993,9 2,3 0,2
27.10.2020 05:00:00 10,2 9,7 - - 31 17 50 27 S 995,3 5 0,4
27.10.2020 04:00:00 9,9 8,8 - - 22 12 - - SSW 996,8 11 0,4
27.10.2020 03:00:00 10,2 9,0 - - 28 15 - - SSW 998,0 1,5 1,0
27.10.2020 02:00:00 11,0 7,7 - - 21 11 - - SW 999,3 35 0,0
27.10.2020 01:00:00 10,9 6,3 - - 13 7 - - WSW 1000,0 35 0,0
27.10.2020 00:00:00 10,3 7,4 - - 15 8 - - WSW 1000,7 40 0,0
26.10.2020 23:00:00 10,3 7,4 - - 13 7 - - WSW 1001,5 26 0,0
26.10.2020 22:00:00 10,4 6,8 - - 11 6 - - W 1002,0 30 0,0
26.10.2020 21:00:00 10,3 6,6 - - 18 10 - - WNW 1001,9 45 0,0
26.10.2020 20:00:00 10,3 6,8 - - 18 10 - - WNW 1001,4 40 0,0
26.10.2020 19:00:00 10,6 7,9 - - 21 11 - - W 1001,3 29 0,0
26.10.2020 18:00:00 10,6 7,4 - - 22 12 - - W 1000,9 35 0,0
26.10.2020 17:00:00 10,8 7,1 - - 21 11 - - WNW 1000,7 35 0,0
26.10.2020 16:00:00 11,7 7,5 - - 24 13 - - W 1000,5 35 0,0
26.10.2020 15:00:00 12,6 7,9 - - 24 13 - - WNW 1000,1 35 0,0
26.10.2020 14:00:00 12,7 8,0 - - 26 14 46 25 WNW 999,9 28 0,0
26.10.2020 13:00:00 12,4 7,9 - - 22 12 - - WNW 999,8 26 0,0
26.10.2020 12:00:00 12,4 8,3 - - 22 12 46 25 WNW 999,6 23 0,0
26.10.2020 11:00:00 12,7 7,7 - - 28 15 50 27 WNW 999,0 24 0,0
26.10.2020 10:00:00 12,0 7,6 - - 28 15 52 28 WNW 998,3 22 0,0
26.10.2020 09:00:00 11,4 7,3 11,0 12,4 26 14 46 25 WNW 997,5 26 0,0
26.10.2020 08:00:00 10,4 8,0 - - 24 13 54 29 WNW 996,5 29 0,0
26.10.2020 07:00:00 10,7 8,4 - - 26 14 52 28 WNW 995,3 30 0,2
26.10.2020 06:00:00 10,9 8,7 - - 35 19 65 35 W 994,2 24 0,0
26.10.2020 05:00:00 11,2 8,3 - - 34 18 57 31 W 993,8 13 0,0
26.10.2020 04:00:00 10,5 8,4 - - 35 19 57 31 W 993,7 19 0,4
26.10.2020 03:00:00 10,9 7,6 - - 31 17 52 28 W 993,7 26 0,0
26.10.2020 02:00:00 10,5 7,5 - - 37 20 54 29 W 993,6 30 0,0
26.10.2020 01:00:00 9,7 7,6 - - 29 16 54 29 W 993,6 2,4 0,2
26.10.2020 00:00:00 10,3 7,4 - - 29 16 48 26 W 993,6 28 1,4
25.10.2020 23:00:00 10,5 7,1 - - 28 15 48 26 W 993,7 27 0,0
25.10.2020 22:00:00 10,5 7,6 - - 31 17 55 30 W 993,6 28 0,4
25.10.2020 21:00:00 10,8 7,4 - - 29 16 52 28 WSW 993,4 35 0,4
25.10.2020 20:00:00 11,1 6,5 - - 28 15 50 27 WSW 993,3 30 0,0
25.10.2020 19:00:00 10,9 6,8 - - 22 12 - - WSW 993,4 35 0,0
25.10.2020 18:00:00 10,5 7,0 - - 24 13 - - WSW 993,0 60 0,0
25.10.2020 17:00:00 9,8 7,6 - - 24 13 50 27 W 992,9 50 0,6
25.10.2020 16:00:00 10,5 7,5 - - 21 11 - - W 992,5 40 0,0
25.10.2020 15:00:00 11,3 6,9 - - 21 11 - - WSW 992,1 50 0,0
25.10.2020 14:00:00 10,2 6,7 - - 31 17 50 27 W 992,1 65 0,2
25.10.2020 13:00:00 10,4 8,6 - - 16 9 - - SW 992,3 35 0,6
25.10.2020 12:00:00 8,7 7,5 - - 28 15 55 30 SW 992,7 1,1 9,0
25.10.2020 11:00:00 9,9 7,1 - - 16 9 57 31 W 992,4 35 0,4
25.10.2020 10:00:00 11,4 6,9 - - 26 14 46 25 W 992,3 45 0,0
25.10.2020 09:00:00 10,4 6,4 11,5 12,7 24 13 46 25 W 992,1 25 0,0
25.10.2020 08:00:00 11,3 7,2 - - 21 11 48 26 WSW 991,8 26 0,0
25.10.2020 07:00:00 10,9 6,7 - - 26 14 46 25 WSW 991,2 35 0,0
25.10.2020 06:00:00 10,1 6,7 - - 22 12 - - SW 991,2 35 0,0
25.10.2020 05:00:00 9,5 7,1 - - 24 13 78 42 WSW 991,1 30 1,8
25.10.2020 04:00:00 9,1 6,9 - - 35 19 54 29 W 990,7 30 0,4
25.10.2020 03:00:00 11,3 7,7 - - 29 16 54 29 SW 990,8 18 0,0
25.10.2020 02:00:00 11,3 6,4 - - 26 14 55 30 SW 991,1 28 0,2
25.10.2020 01:00:00 11,4 7,8 - - 24 13 52 28 SW 991,3 1,7 0,2
25.10.2020 00:00:00 - - - - - - - - - - - -
24.10.2020 23:00:00 11,1 5,8 - - 24 13 - - WSW 992,0 30 0,0
24.10.2020 22:00:00 11,4 5,4 - - 34 18 54 29 WSW 992,1 30 0,0
24.10.2020 21:00:00 10,7 7,3 - - 22 12 48 26 WSW 992,1 30 0,0
24.10.2020 20:00:00 10,3 5,9 - - 31 17 54 29 WSW 992,1 50 0,2
24.10.2020 19:00:00 10,0 7,0 - - 21 11 - - SW 992,4 29 0,0
24.10.2020 18:00:00 10,3 8,6 - - 15 8 - - SW 992,5 45 0,2
24.10.2020 17:00:00 9,4 8,7 - - 11 6 - - SW 992,1 28 0,2
24.10.2020 16:00:00 10,0 8,0 - - 21 11 - - W 992,1 40 0,0
24.10.2020 15:00:00 10,2 9,2 - - 26 14 50 27 W 992,4 6 1,0
24.10.2020 14:00:00 11,8 11,1 - - 34 18 54 29 SSW 992,2 6 1,6
24.10.2020 13:00:00 11,7 11,0 - - 41 22 55 30 SSW 993,5 10 2,6
24.10.2020 12:00:00 11,5 10,8 - - 28 15 - - SSW 994,6 6 1,0
24.10.2020 11:00:00 11,5 10,4 - - 28 15 54 29 SW 995,9 8 1,0
24.10.2020 10:00:00 12,1 11,3 - - 26 14 52 28 SW 996,3 5 0,8
24.10.2020 09:00:00 12,5 11,6 11,7 12,7 34 18 52 28 SW 996,8 5 0,8
24.10.2020 08:00:00 12,7 11,5 - - 37 20 63 34 SSW 996,6 18 1,0
24.10.2020 07:00:00 13,3 12,7 - - 44 24 68 37 SSW 997,1 1,8 0,4
24.10.2020 06:00:00 12,8 12,4 - - 48 26 70 38 SSW 997,9 5 0,0
24.10.2020 05:00:00 12,6 11,9 - - 46 25 81 44 SSW 998,7 5 0,2
24.10.2020 04:00:00 12,9 10,8 - - 52 28 74 40 SSW 1000,0 9 0,0
24.10.2020 03:00:00 12,9 10,2 - - 42 23 70 38 SSW 1001,1 16 0,0
24.10.2020 02:00:00 12,7 9,3 - - 44 24 68 37 SSW 1002,6 19 0,0
24.10.2020 01:00:00 12,4 7,8 - - 41 22 61 33 SSW 1003,5 30 0,0
24.10.2020 00:00:00 12,1 8,1 - - 34 18 61 33 SSW 1004,6 29 0,0
23.10.2020 23:00:00 12,1 7,7 - - 29 16 54 29 SW 1006,0 30 0,0
23.10.2020 22:00:00 11,6 8,1 - - 29 16 46 25 SSW 1006,7 4,8 0,0
23.10.2020 21:00:00 11,3 6,5 - - 24 13 - - SW 1007,1 40 0,0
23.10.2020 20:00:00 11,0 5,8 - - 18 10 - - SW 1007,6 40 0,0
23.10.2020 19:00:00 11,1 5,5 - - 16 9 - - WSW 1008,1 40 0,0
23.10.2020 18:00:00 11,3 6,1 - - 22 12 - - WSW 1008,0 40 0,0
23.10.2020 17:00:00 11,2 5,8 - - 21 11 - - WSW 1007,6 40 0,0
23.10.2020 16:00:00 11,4 5,3 - - 28 15 - - W 1008,0 40 0,0
23.10.2020 15:00:00 12,1 5,7 - - 22 12 - - W 1007,7 17 0,0
23.10.2020 14:00:00 11,6 5,0 - - 22 12 - - W 1007,7 30 0,0
23.10.2020 13:00:00 12,2 5,9 - - 21 11 - - W 1007,6 35 0,0
23.10.2020 12:00:00 12,6 6,6 - - 22 12 - - W 1007,2 35 0,0
23.10.2020 11:00:00 12,0 8,3 - - 18 10 - - WNW 1006,4 45 0,0
23.10.2020 10:00:00 10,7 8,8 - - 22 12 48 26 WNW 1005,7 50 0,0
23.10.2020 09:00:00 11,1 10,1 11,7 12,7 29 16 50 27 W 1004,7 35 0,6
23.10.2020 08:00:00 10,7 9,7 - - 29 16 46 25 SSW 1004,5 5 1,6
23.10.2020 07:00:00 11,3 9,0 - - 28 15 - - SSW 1004,5 15 0,0
23.10.2020 06:00:00 11,4 7,8 - - 22 12 - - SW 1005,0 45 0,0
23.10.2020 05:00:00 11,1 7,1 - - 21 11 - - SW 1005,3 60 0,0
23.10.2020 04:00:00 10,9 6,6 - - 18 10 - - SW 1005,7 65 0,0
23.10.2020 03:00:00 10,6 6,1 - - 15 8 - - SW 1006,3 70 0,0
23.10.2020 02:00:00 10,0 5,6 - - 13 7 - - SW 1007,0 70 0,0
23.10.2020 01:00:00 9,8 5,6 - - 11 6 - - SW 1007,5 75 0,0
23.10.2020 00:00:00 9,3 5,1 - - 9 5 - - SW 1008,0 65 0,0
22.10.2020 23:00:00 9,8 5,1 - - 8 4 - - SW 1008,6 75 0,0
22.10.2020 22:00:00 9,0 4,8 - - 9 5 - - SW 1008,9 75 0,0
22.10.2020 21:00:00 8,7 4,3 - - 8 4 - - WSW 1009,3 75 0,0
22.10.2020 20:00:00 9,0 3,6 - - 9 5 - - WSW 1009,5 75 0,0
22.10.2020 19:00:00 8,8 3,4 - - 9 5 - - WSW 1009,7 75 0,0
22.10.2020 18:00:00 8,6 3,3 - - 11 6 - - W 1009,6 75 0,0
22.10.2020 17:00:00 9,8 3,9 - - 9 5 - - W 1009,3 75 0,0
22.10.2020 16:00:00 10,7 4,2 - - 11 6 - - W 1009,1 75 0,0
22.10.2020 15:00:00 11,2 4,5 - - 13 7 - - W 1009,0 60 0,0
22.10.2020 14:00:00 12,3 4,8 - - 11 6 - - W 1008,9 60 0,0
22.10.2020 13:00:00 12,2 5,8 - - 13 7 - - W 1009,0 50 0,0
22.10.2020 12:00:00 12,5 5,0 - - 15 8 - - W 1009,1 60 0,0
22.10.2020 11:00:00 12,3 6,5 - - 15 8 - - W 1009,0 65 0,0
22.10.2020 10:00:00 10,7 7,3 - - 9 5 - - WNW 1008,7 35 0,0
22.10.2020 09:00:00 9,1 7,6 12,5 12,7 8 4 - - W 1008,5 30 0,0
22.10.2020 08:00:00 7,2 6,5 - - 8 4 - - WNW 1007,7 30 0,0
22.10.2020 07:00:00 6,6 5,8 - - 11 6 - - WNW 1006,7 30 0,0
22.10.2020 06:00:00 6,9 5,6 - - 11 6 - - WNW 1006,1 35 0,0
22.10.2020 05:00:00 7,5 6,2 - - 15 8 - - WNW 1005,6 35 0,0
22.10.2020 04:00:00 7,9 6,5 - - 11 6 - - WNW 1005,1 50 0,0
22.10.2020 03:00:00 7,7 6,7 - - 11 6 - - WNW 1004,8 55 0,0
22.10.2020 02:00:00 8,2 7,2 - - 16 9 - - NW 1004,2 50 0,0

tt = Température de l'air
td = dewpoint
tt -20cm = Température de l'air -20cm
tt -100cm = Température de l'air -100cm
ff = Vitesse du vent
fx = gusts
dd = Direction du vent
ppp = reduced air pressure
vv = visibility
rr = Quantités de précipitations

stations d'obs. à proximité